STARLINK-1790, 46691

Orbit data source: Space-Track

STARLINK-1790, 46691 is a payload satellite owned by SpaceX/Seattle (US) in LEO that was launched on Sun, 18 Oct 2020 UTC via an FALCON 9 launch vehicle from the Air Force Eastern Test Range (AFETR). Payload-class satellites include a variety of spacecraft equipped with specific instruments for various scientific and technological missions. These include communications satellites like Starlink; space stations such as the ISS; scientific satellites like the Hubble; Earth observation satellites from companies like Planet Labs, Umbra, and HawkEye 360; GPS; miniature CubeSats for education and research; and military/defense satellites.

Loading next visibility...
Identifier
46691, 2020-073X
Orbit
LEO
Country
Flag of USUS
Related business
Manufacturer
SpaceX/Seattle
Mission
Operational Commercial Communications
Bus & Motor
STARLINK, Unknown motor
Mass
260 kg wet, ~248 kg dry
Launch date (UTC)
2020-10-18 (5 years ago)
Launch vehicle
FALCON 9
Launch site
Air Force Eastern Test Range (AFETR)
Object type
Payload
Rocket body
Debris
Shape & HBR
Box + 1 Pan, 4.4 m
Radar Cross Section
13.562 m², Large (>1 m²)

Expand to show TLE details & history
Last TLE update: 1 day ago

TLE from 1 day ago
0 STARLINK-1790
1 46691U 20073X   25259.85439497 -.00000574  00000-0 -19624-4 0  9994
2 46691  53.0545 301.9975 0001144  86.1785 273.9335 15.06402200270921
Epoch: 2025-09-16T20:30Z
TLE epoch observation values (Epoch: 2025-09-16T20:30:19.725Z)
Latitude
Longitude
-1.62341°
Altitude
548.03 km
Speed
7.589 km/s
True Right ascension
20h 07m 59s
True Declination
0° 00' 00"
Sunlit
Object was in full shadow at epoch
Visualization orbit readout
Latitude
Unknown
Longitude
Unknown
Altitude
Unknown
Speed
Unknown
Apparent Right ascension
Unknown
Apparent Declination
Unknown
Sunlit
N/A
Visualization observer readout
Local Sidereal Time
13:24:04
Azimuth
Unknown
Elevation
Unknown
Doppler factor
Unknown
Orbital elements
Apogee altitude
548.268 km
Perigee altitude
546.683 km
Semi-major axis
6,925.613 km
Eccentricity
0.00011
Inclination
53.0545°
RAAN
301.9975°
Arg. of periapsis
86.1785°
True anomaly
273.92042°
Mean anomaly
273.9335°
Eccentric anomaly
273.92696°
Mean motion
3.76579 °/min
Orbital period
95.6 mins
BSTAR
-0.000019624
Loading maneuver chart data...
Computing Atmospheric mass density...

Documentation

Showing up to 5 results
|